Location: Passau
(48.5830°N, 13.4830°E)
Time: 20:04:30
(UTC+02:00)

Vanguard 3 - Pass Details

Date: 18 May 2024
Orbit: 509 x 3231 km, 33.3° (Epoch: 15 June)

Event Time Altitude Azimuth Distance (km) Brightness Sun altitude
Rises 22:04:29 0° 242° (WSW) 5,030 11.4 -10.9°
Reaches altitude 10° 22:07:31 10° 235° (SW) 4,362 11.0 -11.3°
Maximum altitude 22:19:28 44° 169° (S) 3,371 9.9 -12.6°
Drops below altitude 10° 22:36:35 10° 106° (ESE) 6,136 11.1 -14.3°
Sets 22:41:50 0° 102° (ESE) 7,188 11.6 -14.8°
